Regional Weather Roundup
Issued by NWS

Home | Current Version | Previous Version | Graphics & Text | Print | Product List | Glossary On
Versions: 1 2 3 4 5 6 7 8 9 10 11 12 13 14 15 16 17 18 19 20 21 22 23 24 25 26 27 28 29 30 31 32 33 34 35 36 37 38 39 40 41 42 43 44 45 46 47 48 49 50
000
ASUS43 KLSX 222307
RWRMO

WEATHER SUMMARY FOR MISSOURI
NATIONAL WEATHER SERVICE SPRINGFIELD MO
600 PM CDT MON SEP 22 2014

NOTE: "FAIR" INDICATES FEW OR NO CLOUDS BELOW 12,000 FEET WITH NO
       SIGNIFICANT WEATHER AND/OR OBSTRUCTIONS TO VISIBILITY.
       CURRENT SKY AND/OR WEATHER CONDITIONS ARE NOT AVAILABLE FOR
       CHILLICOTHE AND FARMINGTON.

MOZ001>031-035>038-043-044-053-054-230000-
...NORTHERN AND WESTERN MISSOURI...

CITY           SKY/WX    TMP DP  RH WIND       PRES   REMARKS
KANSAS CTY INT PTSUNNY   70  51  51 CALM      30.22F
KANSAS C DTWN  SUNNY     74  50  42 S3        30.21F
LEE`S SUMMIT   SUNNY     72  52  49 SE3       30.23F
ST JOSEPH      SUNNY     71  53  52 SW7       30.21F
CHILLICOTHE      N/A     72  51  47 S3        30.24S
KIRKSVILLE     SUNNY     72  48  42 CALM      30.25S

$$
MOZ066>068-077>081-088>096-101>105-230000-
...SOUTHWEST MISSOURI...

CITY           SKY/WX    TMP DP  RH WIND       PRES   REMARKS
SPRINGFIELD    SUNNY     73  47  39 NE6       30.22F
JOPLIN         MOSUNNY   71  52  50 SE5       30.22F

$$
MOZ032>034-039>042-045>050-055>058-069>072-230000-
...CENTRAL MISSOURI...

CITY           SKY/WX    TMP DP  RH WIND       PRES   REMARKS
COLUMBIA       SUNNY     71  50  47 CALM      30.24S
JEFFERSON CITY SUNNY     74  45  35 S3        30.22S
ROLLA          SUNNY     70  46  42 NE7       30.23R
SEDALIA        SUNNY     74  48  39 NE3       30.24S
WHITEMAN AFB   SUNNY     72  52  49 E3        30.23S
OSAGE BEACH    SUNNY     72  46  40 NE6       30.23S

$$
MOZ051-052-059>065-230000-
...EAST CENTRAL MISSOURI...

CITY           SKY/WX    TMP DP  RH WIND       PRES   REMARKS
ST LOUIS INTL  MOSUNNY   74  47  38 NW3       30.23S
SPIRIT OF STL  MOSUNNY   72  46  39 N5        30.22F
ST CHARLES     SUNNY     72  46  39 NW6       30.22S

$$
MOZ072>076-082>087-097>100-106>115-230000-
...SOUTH CENTRAL AND SOUTHEAST MISSOURI...

CITY           SKY/WX    TMP DP  RH WIND       PRES   REMARKS
CAPE GIRARDEAU SUNNY     71  48  43 NE8       30.21R
FARMINGTON     SUNNY     72  46  40 N5        30.25R
POPLAR BLUFF   SUNNY     73  47  39 NE6       30.19F
WEST PLAINS    SUNNY     73  49  42 NE7       30.23S

$$



USA.gov is the U.S. government's official web portal to all federal, state and local government web resources and services.